Hourly Weather Aliabad

Today, 4 December, Friday

Time Temperature Precipitation Wind Pressure Humidity
00:00 +8°C° 0 mm 0 mps 749 mmHg 86%
01:00 +8°C° 0.1 mm 0 mps 749 mmHg 86%
02:00 +7°C° 0.1 mm 0 mps 749 mmHg 86%
03:00 +7°C° 0 mm 0 mps 749 mmHg 88%
04:00 +7°C° 0 mm 0 mps 749 mmHg 88%
05:00 +7°C° 0 mm 0 mps 749 mmHg 88%
06:00 +7°C° 0 mm 0 mps 749 mmHg 88%
07:00 +7°C° 0 mm 0 mps 749 mmHg 86%
08:00 +7°C° 0 mm 0 mps 749 mmHg 84%
09:00 +8°C° 0 mm 0 mps 749 mmHg 82%
10:00 +9°C° 0.1 mm 1 mps 748 mmHg 81%
11:00 +10°C° 0.1 mm 1 mps 748 mmHg 79%
12:00 +10°C° 0.1 mm 1 mps 748 mmHg 77%
13:00 +10°C° 0.1 mm 1 mps 748 mmHg 77%
14:00 +10°C° 0.1 mm 1 mps 748 mmHg 77%
15:00 +10°C° 0.1 mm 1 mps 747 mmHg 77%
16:00 +10°C° 0 mm 1 mps 748 mmHg 81%
17:00 +9°C° 0 mm 1 mps 748 mmHg 84%
18:00 +8°C° 0 mm 1 mps 748 mmHg 87%
19:00 +8°C° 0.1 mm 1 mps 748 mmHg 87%
20:00 +8°C° 0.1 mm 1 mps 748 mmHg 87%
21:00 +8°C° 0.1 mm 1 mps 748 mmHg 86%
22:00 +8°C° 0.1 mm 1 mps 748 mmHg 86%
23:00 +8°C° 0.1 mm 1 mps 748 mmHg 85%

Tomorrow, 5 December, Saturday

Time Temperature Precipitation Wind Pressure Humidity
00:00 +8°C° 0.1 mm 1 mps 748 mmHg 84%
01:00 +8°C° 0 mm 1 mps 748 mmHg 84%
02:00 +7°C° 0 mm 1 mps 748 mmHg 84%
03:00 +7°C° 0 mm 1 mps 748 mmHg 84%
04:00 +7°C° 0 mm 1 mps 748 mmHg 84%
05:00 +5°C° 0 mm 0 mps 748 mmHg 84%
06:00 +5°C° 0 mm 0 mps 747 mmHg 84%
07:00 +6°C° 0 mm 1 mps 748 mmHg 83%
08:00 +7°C° 0 mm 1 mps 748 mmHg 82%
09:00 +8°C° 0 mm 1 mps 748 mmHg 81%
10:00 +8°C° 0 mm 1 mps 748 mmHg 79%
11:00 +9°C° 0 mm 1 mps 747 mmHg 76%
12:00 +8°C° 0 mm 2 mps 747 mmHg 74%
13:00 +9°C° 0 mm 1 mps 747 mmHg 73%
14:00 +10°C° 0 mm 1 mps 747 mmHg 72%
15:00 +10°C° 0 mm 1 mps 746 mmHg 71%
16:00 +9°C° 0.1 mm 1 mps 747 mmHg 74%
17:00 +9°C° 0.1 mm 1 mps 747 mmHg 78%
18:00 +8°C° 0.1 mm 1 mps 747 mmHg 81%
19:00 +8°C° 0.1 mm 1 mps 747 mmHg 81%
20:00 +8°C° 0.1 mm 1 mps 747 mmHg 82%
21:00 +7°C° 0.1 mm 1 mps 747 mmHg 82%
22:00 +7°C° 0.1 mm 1 mps 747 mmHg 82%
23:00 +7°C° 0.1 mm 1 mps 747 mmHg 82%

Day after tomorrow, 6 December, Sunday

Time Temperature Precipitation Wind Pressure Humidity
00:00 +7°C° 0.1 mm 1 mps 747 mmHg 81%
01:00 +7°C° 0.1 mm 1 mps 747 mmHg 82%
02:00 +7°C° 0.1 mm 1 mps 747 mmHg 82%
03:00 +6°C° 0.1 mm 1 mps 747 mmHg 82%
04:00 +6°C° 0.1 mm 1 mps 747 mmHg 82%
05:00 +6°C° 0.1 mm 1 mps 747 mmHg 82%
06:00 +6°C° 0.1 mm 1 mps 747 mmHg 82%
07:00 +6°C° 0.3 mm 1 mps 747 mmHg 84%
08:00 +6°C° 0.3 mm 1 mps 747 mmHg 85%
09:00 +5°C° 0.3 mm 2 mps 747 mmHg 87%
10:00 +5°C° 0.1 mm 2 mps 747 mmHg 88%
11:00 +6°C° 0.1 mm 2 mps 747 mmHg 89%
12:00 +6°C° 0.1 mm 2 mps 747 mmHg 90%
13:00 +6°C° 0.1 mm 2 mps 747 mmHg 89%
14:00 +6°C° 0.1 mm 2 mps 747 mmHg 88%
15:00 +6°C° 0.1 mm 2 mps 746 mmHg 87%
16:00 +5°C° 0 mm 2 mps 747 mmHg 88%
17:00 +5°C° 0 mm 2 mps 747 mmHg 89%
18:00 +5°C° 0 mm 2 mps 748 mmHg 91%
19:00 +4°C° 0.2 mm 2 mps 748 mmHg 91%
20:00 +4°C° 0.2 mm 2 mps 748 mmHg 92%
21:00 +4°C° 0.2 mm 2 mps 749 mmHg 92%
22:00 +4°C° 0.2 mm 2 mps 749 mmHg 92%
23:00 +3°C° 0.2 mm 2 mps 749 mmHg 91%

7 December, Monday

Time Temperature Precipitation Wind Pressure Humidity
00:00 +3°C° 0.2 mm 2 mps 749 mmHg 91%
01:00 +3°C° 0.1 mm 2 mps 749 mmHg 90%
02:00 +3°C° 0.1 mm 2 mps 749 mmHg 90%
03:00 +3°C° 0.1 mm 1 mps 749 mmHg 89%
04:00 +3°C° 0.1 mm 1 mps 749 mmHg 90%
05:00 +3°C° 0.1 mm 1 mps 749 mmHg 90%
06:00 +3°C° 0.1 mm 1 mps 749 mmHg 91%
07:00 +3°C° 0.1 mm 1 mps 749 mmHg 89%
08:00 +4°C° 0.1 mm 1 mps 749 mmHg 87%
09:00 +3°C° 0.1 mm 2 mps 749 mmHg 85%
10:00 +3°C° 0 mm 2 mps 749 mmHg 82%
11:00 +4°C° 0 mm 2 mps 749 mmHg 79%
12:00 +5°C° 0 mm 2 mps 749 mmHg 75%
13:00 +6°C° 0 mm 1 mps 749 mmHg 75%
14:00 +6°C° 0 mm 1 mps 748 mmHg 74%
15:00 +6°C° 0 mm 1 mps 748 mmHg 73%
16:00 +5°C° 0 mm 1 mps 748 mmHg 75%
17:00 +5°C° 0 mm 1 mps 749 mmHg 77%
18:00 +5°C° 0 mm 1 mps 749 mmHg 79%
19:00 +4°C° 0 mm 1 mps 749 mmHg 82%
20:00 +4°C° 0 mm 1 mps 749 mmHg 85%
21:00 +4°C° 0 mm 1 mps 750 mmHg 88%
22:00 +3°C° 0 mm 1 mps 750 mmHg 88%
23:00 +3°C° 0 mm 1 mps 750 mmHg 89%

8 December, Tuesday

Time Temperature Precipitation Wind Pressure Humidity
00:00 +3°C° 0 mm 1 mps 750 mmHg 90%
01:00 +1°C° 0 mm 0 mps 750 mmHg 89%
02:00 +1°C° 0 mm 0 mps 749 mmHg 89%
03:00 +1°C° 0 mm 0 mps 749 mmHg 89%
04:00 +1°C° 0 mm 0 mps 749 mmHg 89%
05:00 +1°C° 0 mm 0 mps 749 mmHg 89%
06:00 0°C° 0 mm 0 mps 749 mmHg 89%
07:00 +1°C° 0 mm 0 mps 750 mmHg 88%
08:00 +2°C° 0 mm 0 mps 750 mmHg 86%
09:00 +2°C° 0 mm 0 mps 750 mmHg 84%
10:00 +3°C° 0 mm 0 mps 749 mmHg 81%
11:00 +5°C° 0 mm 1 mps 749 mmHg 78%
12:00 +5°C° 0 mm 1 mps 749 mmHg 75%
13:00 +5°C° 0 mm 1 mps 749 mmHg 74%
14:00 +6°C° 0 mm 1 mps 748 mmHg 73%
15:00 +6°C° 0 mm 1 mps 748 mmHg 72%
16:00 +5°C° 0 mm 1 mps 749 mmHg 73%
17:00 +3°C° 0 mm 0 mps 749 mmHg 74%
18:00 +3°C° 0 mm 0 mps 749 mmHg 75%
19:00 +3°C° 0 mm 0 mps 749 mmHg 74%
20:00 +4°C° 0 mm 1 mps 749 mmHg 74%
21:00 +3°C° 0 mm 1 mps 749 mmHg 73%
22:00 +3°C° 0 mm 1 mps 749 mmHg 73%
23:00 +3°C° 0 mm 1 mps 749 mmHg 72%

9 December, Wednesday

Time Temperature Precipitation Wind Pressure Humidity
00:00 +2°C° 0 mm 0 mps 749 mmHg 72%
01:00 +2°C° 0 mm 0 mps 749 mmHg 73%
02:00 +2°C° 0 mm 0 mps 749 mmHg 74%
03:00 +2°C° 0 mm 0 mps 749 mmHg 75%
04:00 +1°C° 0 mm 0 mps 749 mmHg 76%
05:00 +1°C° 0 mm 0 mps 749 mmHg 76%
06:00 +1°C° 0 mm 0 mps 748 mmHg 76%
07:00 +2°C° 0 mm 0 mps 749 mmHg 75%
08:00 +2°C° 0 mm 0 mps 749 mmHg 73%
09:00 +3°C° 0 mm 0 mps 749 mmHg 71%
10:00 +4°C° 0 mm 0 mps 748 mmHg 68%
11:00 +6°C° 0 mm 1 mps 748 mmHg 66%
12:00 +6°C° 0 mm 1 mps 748 mmHg 63%
13:00 +6°C° 0 mm 1 mps 747 mmHg 64%
14:00 +7°C° 0 mm 1 mps 747 mmHg 65%
15:00 +7°C° 0 mm 1 mps 747 mmHg 65%
16:00 +6°C° 0 mm 1 mps 747 mmHg 68%
17:00 +5°C° 0 mm 1 mps 748 mmHg 71%
18:00 +4°C° 0 mm 1 mps 748 mmHg 74%
19:00 +4°C° 0 mm 1 mps 748 mmHg 73%
20:00 +3°C° 0 mm 1 mps 748 mmHg 73%
21:00 +3°C° 0 mm 1 mps 748 mmHg 72%
22:00 +3°C° 0 mm 1 mps 748 mmHg 73%
23:00 +3°C° 0 mm 1 mps 748 mmHg 73%
Show more